User: anonymous   Login
Location: Benque
(43.2594°N, 0.9178°E)
Time: 19:56:42
(UTC+00:00)
Language:

Cosmos 1812 Rocket - Orbit

View from above orbital plane
View from above orbital plane
View from above satellite
View from above satellite

Ground track
Ground track

The orbit data is extracted from the following two-line orbital elements,

1 17296U 87003B   20090.68268377 +.00000049 +00000-0 +29860-5 0  9994
2 17296 082.5305 153.2501 0020578 105.3964 254.9526 14.83287198772850
Epoch (UTC): 30 March 2020 16:23:03
Eccentricity: 0.0020578
inclination: 82.5305°
perigee height: 604 km
apogee height: 633 km
right ascension of ascending node: 153.2501°
argument of perigee: 105.3964°
revolutions per day: 14.83287198
mean anomaly at epoch: 254.9526°
orbit number at epoch: 77285

The dashed part of the orbit path shows where the satellite is in the earth's shadow,  

DLR